When you browse on this site, cookies collect data to enhance your experience and personalize the content and advertising you see.
Visit our Privacy Policy to learn more. By continuing to use the site, you agree to this use of cookies and data.
  • în România
  • Lista ţărilor
  • Pe 7 zile
  • Temperatura apei
  • Hartă satelitară
  • Meteo pe hartă
  • Widget-uri
  • user-avatar
    Intrare

    Meteo pe oră la Habra

    Astăzi, 22 Februarie, Vineri

    Timp Temperatura Precipitaţii Vânt Presiune Umiditate
    00:00 +27°C° 0 mm 1 m/s 760 mmHg 38%
    01:00 +27°C° 0 mm 1 m/s 759 mmHg 41%
    02:00 +26°C° 0 mm 1 m/s 759 mmHg 44%
    03:00 +25°C° 0 mm 1 m/s 759 mmHg 47%
    04:00 +25°C° 0 mm 1 m/s 759 mmHg 52%
    05:00 +25°C° 0 mm 1 m/s 759 mmHg 58%
    06:00 +24°C° 0 mm 1 m/s 759 mmHg 63%
    07:00 +26°C° 0 mm 2 m/s 759 mmHg 61%
    08:00 +27°C° 0 mm 2 m/s 759 mmHg 58%
    09:00 +29°C° 0 mm 2 m/s 759 mmHg 56%
    10:00 +31°C° 0 mm 2 m/s 759 mmHg 49%
    11:00 +34°C° 0 mm 3 m/s 759 mmHg 41%
    12:00 +36°C° 0 mm 3 m/s 759 mmHg 34%
    13:00 +37°C° 0 mm 3 m/s 758 mmHg 31%
    14:00 +38°C° 0 mm 3 m/s 757 mmHg 28%
    15:00 +40°C° 0 mm 4 m/s 756 mmHg 26%
    16:00 +37°C° 0 mm 3 m/s 756 mmHg 28%
    17:00 +36°C° 0 mm 2 m/s 756 mmHg 31%
    18:00 +35°C° 0 mm 2 m/s 756 mmHg 33%
    19:00 +34°C° 0 mm 2 m/s 756 mmHg 35%
    20:00 +32°C° 0 mm 1 m/s 757 mmHg 37%
    21:00 +31°C° 0 mm 1 m/s 757 mmHg 38%
    22:00 +30°C° 0 mm 2 m/s 757 mmHg 46%
    23:00 +29°C° 0 mm 2 m/s 757 mmHg 53%

    Mâine, 23 Februarie, Sâmbătă

    Timp Temperatura Precipitaţii Vânt Presiune Umiditate
    00:00 +28°C° 0 mm 3 m/s 757 mmHg 60%
    01:00 +27°C° 0 mm 3 m/s 757 mmHg 64%
    02:00 +27°C° 0 mm 3 m/s 756 mmHg 68%
    03:00 +26°C° 0 mm 2 m/s 756 mmHg 72%
    04:00 +26°C° 0 mm 2 m/s 756 mmHg 73%
    05:00 +26°C° 0 mm 2 m/s 756 mmHg 73%
    06:00 +26°C° 0 mm 2 m/s 756 mmHg 74%
    07:00 +27°C° 0 mm 2 m/s 757 mmHg 66%
    08:00 +29°C° 0 mm 2 m/s 757 mmHg 57%
    09:00 +31°C° 0 mm 3 m/s 758 mmHg 49%
    10:00 +34°C° 0 mm 3 m/s 758 mmHg 42%
    11:00 +36°C° 0 mm 3 m/s 757 mmHg 35%
    12:00 +37°C° 0 mm 3 m/s 757 mmHg 28%
    13:00 +38°C° 0 mm 4 m/s 756 mmHg 27%
    14:00 +38°C° 0 mm 4 m/s 755 mmHg 25%
    15:00 +40°C° 0 mm 4 m/s 754 mmHg 24%
    16:00 +38°C° 0 mm 3 m/s 754 mmHg 27%
    17:00 +36°C° 0 mm 3 m/s 754 mmHg 29%
    18:00 +35°C° 0 mm 2 m/s 755 mmHg 32%
    19:00 +34°C° 0 mm 2 m/s 755 mmHg 32%
    20:00 +34°C° 0 mm 2 m/s 756 mmHg 33%
    21:00 +32°C° 0 mm 2 m/s 756 mmHg 34%
    22:00 +31°C° 0 mm 2 m/s 756 mmHg 35%
    23:00 +30°C° 0 mm 1 m/s 756 mmHg 37%

    Poimâine, 24 Februarie, Duminică

    Timp Temperatura Precipitaţii Vânt Presiune Umiditate
    00:00 +28°C° 0 mm 1 m/s 756 mmHg 39%
    01:00 +28°C° 0 mm 2 m/s 756 mmHg 40%
    02:00 +27°C° 0 mm 2 m/s 756 mmHg 41%
    03:00 +27°C° 0 mm 2 m/s 756 mmHg 42%
    04:00 +26°C° 0 mm 2 m/s 756 mmHg 43%
    05:00 +26°C° 0 mm 2 m/s 756 mmHg 44%
    06:00 +25°C° 0 mm 2 m/s 756 mmHg 45%
    07:00 +27°C° 0 mm 2 m/s 757 mmHg 41%
    08:00 +28°C° 0 mm 2 m/s 758 mmHg 36%
    09:00 +29°C° 0 mm 3 m/s 759 mmHg 32%
    10:00 +31°C° 0 mm 3 m/s 758 mmHg 29%
    11:00 +33°C° 0 mm 3 m/s 758 mmHg 26%
    12:00 +35°C° 0 mm 3 m/s 758 mmHg 24%
    13:00 +35°C° 0 mm 3 m/s 757 mmHg 24%
    14:00 +36°C° 0 mm 3 m/s 756 mmHg 24%
    15:00 +36°C° 0 mm 3 m/s 755 mmHg 24%
    16:00 +35°C° 0 mm 2 m/s 755 mmHg 26%
    17:00 +34°C° 0 mm 2 m/s 755 mmHg 28%
    18:00 +32°C° 0 mm 2 m/s 755 mmHg 30%
    19:00 +32°C° 0 mm 2 m/s 756 mmHg 31%
    20:00 +31°C° 0 mm 1 m/s 756 mmHg 31%
    21:00 +30°C° 0 mm 1 m/s 757 mmHg 31%
    22:00 +29°C° 0 mm 1 m/s 757 mmHg 35%
    23:00 +29°C° 0 mm 1 m/s 757 mmHg 40%

    25 Februarie, Luni

    Timp Temperatura Precipitaţii Vânt Presiune Umiditate
    00:00 +28°C° 0 mm 1 m/s 757 mmHg 44%
    01:00 +27°C° 0.2 mm 2 m/s 757 mmHg 46%
    02:00 +27°C° 0.2 mm 3 m/s 757 mmHg 48%
    03:00 +26°C° 0.2 mm 4 m/s 757 mmHg 50%
    04:00 +26°C° 0.6 mm 4 m/s 757 mmHg 55%
    05:00 +25°C° 0.6 mm 3 m/s 757 mmHg 61%
    06:00 +24°C° 0.6 mm 2 m/s 757 mmHg 66%
    07:00 +25°C° 0.4 mm 2 m/s 758 mmHg 62%
    08:00 +27°C° 0.4 mm 2 m/s 758 mmHg 59%
    09:00 +28°C° 0.4 mm 2 m/s 759 mmHg 55%
    10:00 +29°C° 0 mm 2 m/s 759 mmHg 50%
    11:00 +30°C° 0 mm 2 m/s 758 mmHg 44%
    12:00 +32°C° 0 mm 2 m/s 758 mmHg 39%
    13:00 +33°C° 0 mm 3 m/s 757 mmHg 39%
    14:00 +34°C° 0 mm 3 m/s 757 mmHg 39%
    15:00 +34°C° 0 mm 4 m/s 756 mmHg 40%
    16:00 +33°C° 0 mm 3 m/s 756 mmHg 43%
    17:00 +31°C° 0 mm 3 m/s 755 mmHg 46%
    18:00 +30°C° 0 mm 2 m/s 755 mmHg 49%
    19:00 +28°C° 3.1 mm 3 m/s 756 mmHg 59%
    20:00 +27°C° 3.1 mm 4 m/s 758 mmHg 68%
    21:00 +25°C° 3.1 mm 4 m/s 759 mmHg 78%
    22:00 +25°C° 0.2 mm 4 m/s 759 mmHg 78%
    23:00 +25°C° 0.2 mm 4 m/s 759 mmHg 78%

    26 Februarie, Marţi

    Timp Temperatura Precipitaţii Vânt Presiune Umiditate
    00:00 +23°C° 0.2 mm 5 m/s 759 mmHg 78%
    01:00 +23°C° 0.1 mm 4 m/s 758 mmHg 76%
    02:00 +23°C° 0.1 mm 4 m/s 758 mmHg 75%
    03:00 +23°C° 0.1 mm 4 m/s 757 mmHg 74%
    04:00 +22°C° 1.1 mm 4 m/s 757 mmHg 75%
    05:00 +22°C° 1.1 mm 4 m/s 758 mmHg 77%
    06:00 +22°C° 1.1 mm 4 m/s 758 mmHg 78%
    07:00 +22°C° 0.5 mm 4 m/s 759 mmHg 76%
    08:00 +23°C° 0.5 mm 4 m/s 760 mmHg 74%
    09:00 +24°C° 0.5 mm 3 m/s 760 mmHg 72%
    10:00 +26°C° 0.1 mm 3 m/s 760 mmHg 62%
    11:00 +28°C° 0.1 mm 4 m/s 759 mmHg 52%
    12:00 +30°C° 0.1 mm 4 m/s 759 mmHg 42%
    13:00 +32°C° 0.2 mm 4 m/s 758 mmHg 41%
    14:00 +31°C° 0.2 mm 3 m/s 757 mmHg 39%
    15:00 +31°C° 0.2 mm 3 m/s 756 mmHg 38%
    16:00 +30°C° 0.7 mm 3 m/s 756 mmHg 45%
    17:00 +28°C° 0.7 mm 3 m/s 756 mmHg 52%
    18:00 +27°C° 0.7 mm 2 m/s 757 mmHg 59%
    19:00 +25°C° 8.1 mm 4 m/s 758 mmHg 69%
    20:00 +22°C° 8.1 mm 5 m/s 758 mmHg 79%
    21:00 +20°C° 8.1 mm 6 m/s 759 mmHg 89%
    22:00 +20°C° 1.2 mm 5 m/s 759 mmHg 87%
    23:00 +20°C° 1.2 mm 4 m/s 758 mmHg 85%

    27 Februarie, Miercuri

    Timp Temperatura Precipitaţii Vânt Presiune Umiditate
    00:00 +21°C° 1.2 mm 4 m/s 758 mmHg 83%
    01:00 +21°C° 0.7 mm 4 m/s 758 mmHg 82%
    02:00 +21°C° 0.7 mm 4 m/s 757 mmHg 81%
    03:00 +21°C° 0.7 mm 5 m/s 756 mmHg 81%
    04:00 +20°C° 1 mm 4 m/s 757 mmHg 82%
    05:00 +20°C° 1 mm 3 m/s 757 mmHg 83%
    06:00 +20°C° 1 mm 3 m/s 757 mmHg 84%
    07:00 +21°C° 0.9 mm 3 m/s 758 mmHg 81%
    08:00 +22°C° 0.9 mm 4 m/s 758 mmHg 78%
    09:00 +22°C° 0.9 mm 5 m/s 759 mmHg 75%
    10:00 +25°C° 1.1 mm 5 m/s 759 mmHg 68%
    11:00 +27°C° 1.1 mm 5 m/s 758 mmHg 61%
    12:00 +29°C° 1.1 mm 4 m/s 758 mmHg 53%
    13:00 +28°C° 1.7 mm 4 m/s 758 mmHg 59%
    14:00 +27°C° 1.7 mm 3 m/s 757 mmHg 65%
    15:00 +26°C° 1.7 mm 2 m/s 757 mmHg 71%
    16:00 +25°C° 1.1 mm 3 m/s 756 mmHg 75%
    17:00 +24°C° 1.1 mm 3 m/s 756 mmHg 79%
    18:00 +22°C° 1.1 mm 4 m/s 756 mmHg 83%
    19:00 +22°C° 0 mm 4 m/s 756 mmHg 82%
    20:00 +22°C° 0 mm 4 m/s 756 mmHg 82%
    21:00 +22°C° 0 mm 4 m/s 757 mmHg 81%
    22:00 +22°C° 0.3 mm 3 m/s 756 mmHg 82%
    23:00 +22°C° 0.3 mm 3 m/s 756 mmHg 82%
    Arată mai mult